User: anonymous   Login
Location: Milo
(50.5667°N, 112.8833°W)
Time: 02:57:00
(UTC+00:00)
Language:

ISS - Orbit

View from above orbital plane
View from above orbital plane
View from above satellite
View from above satellite

Ground track
Ground track

The orbit data is extracted from the following two-line orbital elements,

1 25544U 98067A   22022.91470718  .00005958  00000-0  11386-3 0  9994
2 25544  51.6445 336.0056 0006830  51.7508  17.5213 15.49594026322655
Epoch (UTC): 22 January 2022 21:57:10
Eccentricity: 0.0006830
inclination: 51.6445°
perigee height: 413 km
apogee height: 422 km
right ascension of ascending node: 336.0056°
argument of perigee: 51.7508°
revolutions per day: 15.49594026
mean anomaly at epoch: 17.5213°
orbit number at epoch: 32265

The dashed part of the orbit path shows where the satellite is in the earth's shadow,  

DLR